Вернуться в каталог

ADS-01

АктивенНаукаGEO
NORAD 62006·PAYLOAD·🇦🇺 Australia

Запущен Nov 17, 2024 с Cape Canaveral Space Force Station

Loading…

TLE

СвежийSource: Space-Track

Эпоха: Sep 14, 2026, 15:10 UTC

1 62006U 24212A   26257.63218127 -.00000151  00000-0  00000-0 0  9995
2 62006   0.0446 270.5425 0002567 261.9750 205.0866  1.00272292  6654

Отслеживайте ADS-01 в реальном времени с AllMySat

Download on the App Store